This is the latest recevied weather packets stored in our database for station/object KC9Q. If no packets are shown the sender has not sent any weather packets the latest 10 day(s).
| Time | Temp. | Humidity | Pressure | Rain* | Wind** | Luminosity | Snow |
|---|---|---|---|---|---|---|---|
| 1777479843 | 16.67° C | 76% | 1015.7 hPa | 0 mm | - | 859 W/m² | - |
| 1777479540 | 17.22° C | 75% | 1015.6 hPa | 0 mm | - | 265 W/m² | - |
| 1777479237 | 16.67° C | 76% | 1015.5 hPa | 0 mm | - | 788 W/m² | - |
| 1777478933 | 16.67° C | 77% | 1015.5 hPa | 0 mm | - | 272 W/m² | - |
| 1777478630 | 16.11° C | 81% | 1015.3 hPa | 0 mm | - | 221 W/m² | - |
| 1777478327 | 16.11° C | 81% | 1015.4 hPa | 0 mm | - | 210 W/m² | - |
| 1777478024 | 16.11° C | 81% | 1015.5 hPa | 0 mm | - | 203 W/m² | - |
| 1777477718 | 16.67° C | 81% | 1015.2 hPa | 0 mm | - | 157 W/m² | - |
| 1777477416 | 16.67° C | 82% | 1015.1 hPa | 0 mm | - | 336 W/m² | - |
| 1777477112 | 16.11° C | 81% | 1015.2 hPa | 0 mm | - | 193 W/m² | - |
| 1777476809 | 16.11° C | 83% | 1015.4 hPa | 0 mm | - | 272 W/m² | - |
| 1777476506 | 15.56° C | 83% | 1015.4 hPa | 0 mm | - | 172 W/m² | - |
| 1777476203 | 15.56° C | 82% | 1015.3 hPa | 0 mm | - | 172 W/m² | - |
| 1777475898 | 15.56° C | 84% | 1015.3 hPa | 0 mm | - | 257 W/m² | - |
| 1777475595 | 15.56° C | 85% | 1015.4 hPa | 0 mm | - | 274 W/m² | - |
| 1777475291 | 15.56° C | 85% | 1015.4 hPa | 0 mm | - | 180 W/m² | - |
| 1777474986 | 15° C | 86% | 1015.4 hPa | 0 mm | - | 187 W/m² | - |
| 1777474683 | 15° C | 86% | 1015.1 hPa | 0 mm | - | 187 W/m² | - |
| 1777474380 | 15° C | 84% | 1015.1 hPa | 0 mm | - | 108 W/m² | - |
| 1777474075 | 15° C | 85% | 1015 hPa | 0 mm | - | 176 W/m² | - |
| 1777473774 | 15° C | 85% | 1014.8 hPa | 0 mm | - | 174 W/m² | - |
| 1777473470 | 15° C | 86% | 1014.9 hPa | 0 mm | - | 152 W/m² | - |
| 1777473166 | 15° C | 87% | 1015 hPa | 0 mm | - | 165 W/m² | - |
| 1777472863 | 15° C | 86% | 1014.8 hPa | 0 mm | - | 190 W/m² | - |
| 1777472559 | 15° C | 88% | 1014.8 hPa | 0 mm | - | 189 W/m² | - |
* Rain latest hour (hover to see other rain measurements)
** Current wind speed in m/s (hover to see current wind gust speed)